Home   Weather   Rarotonga   Past weeks

Flag for Cook Islands Past Weather in Rarotonga, Cook Islands — Yesterday and Last 2 Weeks

Now
79 °F

Partly cloudy.


Feels Like: 83 °F
Forecast: 78 / 87 °F
Wind: 1 mph from East

Location: Rarotonga

Current Time: Dec 3, 2016 at 1:43:59 am

Latest Report: Dec 3, 2016 at 1:00 am


Visibility: N/A

Pressure: 29.80 "Hg

Humidity: 94%

Dew Point: 77 °F

Location of RarotongaLocation

Past Weather in Rarotonga — Graph

°F

Rarotonga Temperature Yesterday

Maximum temperature yesterday: 88 °F (at 1:00 pm)
Minimum temperature yesterday: 77 °F (at 12:00 am)
Average temperature yesterday: 83 °F

High & Low Weather Summary for the Past Weeks

 TemperatureHumidityPressure
High88 °F (Nov 27, 3:00 pm)100% (Nov 19, 7:00 pm)29.98 "Hg (Nov 19, 7:00 pm)
Low73 °F (Nov 18, 8:00 pm)61% (Nov 25, 3:00 am)29.74 "Hg (Dec 2, 3:00 pm)
Average79 °F83%29.88 "Hg
* Reported Nov 18 12:00 am — Dec 3 12:00 am, Rarotonga, Weather by CustomWeather, © 2016

Note: Actual official high and low records may vary slightly from our data, if they occured in-between our weather recording intervals... More about our weather records

Advertising

Rarotonga Weather History for the Previous 24 Hours

Scroll right to see more
 ConditionsComfort  
Time TempWeatherWind HumidityBarometerVisibility
12:00 am
Sat, Dec 3
79 °FPartly cloudy.1 mph89%29.83 "HgN/A
11:00 pm
Fri, Dec 2
79 °FPartly cloudy.1 mph89%29.83 "HgN/A
10:00 pm79 °FPartly cloudy.6 mph89%29.83 "HgN/A
9:00 pm81 °FSprinkles. Partly cloudy.17 mph94%29.83 "HgN/A
8:00 pm82 °FDrizzle. Broken clouds.12 mph89%29.80 "HgN/A
7:00 pm82 °FBroken clouds.10 mph84%29.77 "HgN/A
6:00 pm84 °FBroken clouds.8 mph79%29.74 "HgN/A
5:00 pm86 °FScattered clouds.9 mph79%29.74 "HgN/A
4:00 pm88 °FScattered clouds.9 mph70%29.74 "HgN/A
3:00 pm88 °FScattered clouds.12 mph70%29.74 "HgN/A
2:00 pm88 °FScattered clouds.10 mph75%29.77 "HgN/A
1:00 pm88 °FScattered clouds.12 mph75%29.77 "HgN/A
12:00 pm86 °FScattered clouds.12 mph79%29.77 "HgN/A
11:00 am86 °FPassing clouds.10 mph84%29.77 "HgN/A
10:00 am84 °FScattered clouds.13 mph79%29.80 "HgN/A
9:00 am82 °FScattered clouds.10 mph89%29.80 "HgN/A
1:00 am77 °FPassing clouds.3 mph89%29.80 "HgN/A
Weather by CustomWeather, © 2016

See weather overviewHow to use our weather pages